This is the latest recevied weather packets stored in our database for station/object KQ4PPF. If no packets are shown the sender has not sent any weather packets the latest 10 day(s).
| Time | Temp. | Humidity | Pressure | Rain* | Wind** | Luminosity | Snow |
|---|---|---|---|---|---|---|---|
| 1777299880 | 19.44° C | 75% | 1019.3 hPa | 0 mm | - | 102 W/m² | - |
| 1777299578 | 18.89° C | 75% | 1019.5 hPa | 0 mm | - | 144 W/m² | - |
| 1777299276 | 19.44° C | 74% | 1019.4 hPa | 0 mm | - | 98 W/m² | - |
| 1777298972 | 19.44° C | 75% | 1019.5 hPa | 0 mm | - | 99 W/m² | - |
| 1777298670 | 18.89° C | 76% | 1019.5 hPa | 0 mm | - | 90 W/m² | - |
| 1777298366 | 18.89° C | 76% | 1019.4 hPa | 0 mm | - | 71 W/m² | - |
| 1777298062 | 18.33° C | 77% | 1019.4 hPa | 0 mm | - | 84 W/m² | - |
| 1777297762 | 18.89° C | 76% | 1019.2 hPa | 0 mm | - | 120 W/m² | - |
| 1777297461 | 18.89° C | 78% | 1019.2 hPa | 0 mm | - | 84 W/m² | - |
| 1777297157 | 18.33° C | 79% | 1019.2 hPa | 0 mm | - | 83 W/m² | - |
| 1777296854 | 17.78° C | 80% | 1019.2 hPa | 0 mm | - | 75 W/m² | - |
| 1777296555 | 17.78° C | 80% | 1019.2 hPa | 0 mm | - | 66 W/m² | - |
| 1777296221 | 17.78° C | 80% | 1018.7 hPa | 0 mm | - | 66 W/m² | - |
| 1777295917 | 18.33° C | 79% | 1018.8 hPa | 0 mm | - | 78 W/m² | - |
| 1777295614 | 18.89° C | 78% | 1018.6 hPa | 0 mm | - | 95 W/m² | - |
| 1777295311 | 18.89° C | 79% | 1018.7 hPa | 0 mm | - | 115 W/m² | - |
| 1777295010 | 18.33° C | 80% | 1018.6 hPa | 0 mm | - | 111 W/m² | - |
| 1777294706 | 18.33° C | 80% | 1018.5 hPa | 0 mm | - | 100 W/m² | - |
| 1777294401 | 17.78° C | 81% | 1018.8 hPa | 0 mm | - | 142 W/m² | - |
| 1777294098 | 17.78° C | 81% | 1018.8 hPa | 0 mm | - | 72 W/m² | - |
| 1777293795 | 17.78° C | 82% | 1019 hPa | 0 mm | - | 62 W/m² | - |
| 1777293490 | 17.78° C | 81% | 1018.7 hPa | 0 mm | - | 62 W/m² | - |
| 1777293186 | 17.78° C | 81% | 1018.9 hPa | 0 mm | - | 64 W/m² | - |
| 1777292886 | 18.33° C | 82% | 1018.8 hPa | 0 mm | - | 78 W/m² | - |
| 1777292582 | 18.33° C | 82% | 1018.7 hPa | 0 mm | - | 79 W/m² | - |
* Rain latest hour (hover to see other rain measurements)
** Current wind speed in m/s (hover to see current wind gust speed)